Location: Mercogliano
(40.9167°N, 14.7333°E)
Time: 07:53:42
(UTC+00:00)

Cosmos 2150 Rocket - Pass Details

Date: 22 January 2021
Orbit: 748 x 808 km, 74.0° (Epoch: 04 March)

Event Time Altitude Azimuth Distance (km) Brightness Sun altitude
Exits shadow 03:57:22 - 357° (N) 3,166 7.1 -26.7°
Reaches altitude 10° 04:00:19 10° 16° (NNE) 2,346 6.6 -26.2°
Maximum altitude 04:03:43 17° 56° (NE) 1,919 6.6 -25.5°
Drops below altitude 10° 04:07:07 10° 95° (E) 2,362 7.6 -24.9°
Sets 04:10:25 0° 116° (ESE) 3,298 8.4 -24.3°
